Millinocket, ME

11:02 AM EDT on May 25, 2017 (GMT -0400)
Millinocket Municipal

Weather History for KMLT - November, 2012

Change the Weather History Date:

Thursday, November 22, 2012

  Actual Average Record
Temperature  
Mean Temperature 34 °F 32 °F  
Max Temperature 46 °F 39 °F 64 °F (1903)
Min Temperature 22 °F 25 °F 2 °F (1978)
Degree Days  
Heating Degree Days 31 33  
Month to date heating degree days 633 632  
Since 1 July heating degree days 1338 1566  
Cooling Degree Days 0 0  
Month to date cooling degree days 0 0  
Year to date cooling degree days 443 268  
Moisture  
Dew Point 28 °F    
Average Humidity 83    
Maximum Humidity 100    
Minimum Humidity 65    
Precipitation  
Precipitation 0.00 in 0.17 in 3.00 in (2005)
Month to date precipitation 1.12 3.12  
Year to date precipitation 35.53 37.84  
Sea Level Pressure  
Sea Level Pressure 30.21 in    
Wind  
Wind Speed 1 mph (ESE)    
Max Wind Speed 7 mph    
Max Gust Speed 12 mph    
Visibility 5 miles    
Events Fog    
T = Trace of Precipitation, MM = Missing Value Source: NWS Daily Summary

Daily Weather History Graph

Daily Weather History Graph

Search for Another Location

Airport or City:

Trip Planner

Search our weather history database for the weather conditions in past years. The results will help you decide how hot, cold, wet, or windy it might be!

Date:

Astronomy

Nov. 22, 2012 Rise Set
Actual Time 6:44 AM EST 3:57 PM EST
Civil Twilight 6:11 AM EST 4:30 PM EST
Nautical Twilight 5:34 AM EST 5:06 PM EST
Astronomical Twilight 4:59 AM EST 5:42 PM EST
Moon 12:55 PM EST (11/22) 12:45 AM EST (11/22)
Length of Visible Light 10h 18m
Length of Day
9h 13m
Waxing Gibbous, 71% of the Moon is Illuminated
Nov 22
Waxing Gibbous
Nov 28
Full
Dec 6
Last Quarter
Dec 13
New
Dec 20
First Quarter

Hourly Weather History & Observations

Time (EST) Temp. Windchill Dew Point Humidity Pressure Visibility Wind Dir Wind Speed Gust Speed Precip Events Conditions
12:34 AM 24.8 °F - 21.2 °F 86% 30.25 in 2.5 mi Calm Calm - N/A   Clear
12:44 AM 24.8 °F - 21.2 °F 86% 30.24 in 3.0 mi Calm Calm - N/A   Clear
12:53 AM 24.1 °F - 21.0 °F 88% 30.27 in 4.0 mi Calm Calm - N/A   Clear
1:53 AM 24.1 °F - 21.0 °F 88% 30.27 in 4.0 mi Calm Calm - N/A   Clear
2:53 AM 23.0 °F - 21.0 °F 92% 30.26 in 4.0 mi Calm Calm - N/A   Clear
3:53 AM 23.0 °F 18.4 °F 21.0 °F 92% 30.27 in 7.0 mi WNW 3.5 mph - N/A   Clear
4:53 AM 23.0 °F - 21.0 °F 92% 30.27 in 8.0 mi Calm Calm - N/A   Mostly Cloudy
5:43 AM 23.0 °F - 21.2 °F 93% 30.23 in 2.5 mi Calm Calm - N/A   Mostly Cloudy
5:50 AM 23.0 °F - 21.2 °F 93% 30.22 in 3.0 mi Calm Calm - N/A   Mostly Cloudy
5:53 AM 23.0 °F - 21.0 °F 92% 30.26 in 1.5 mi Calm Calm - N/A   Overcast
5:56 AM 23.0 °F - 21.2 °F 93% 30.23 in 0.8 mi Calm Calm - N/A   Mist
6:11 AM 23.0 °F 18.4 °F 21.2 °F 93% 30.23 in 0.2 mi NW 3.5 mph - N/A Fog Light Freezing Fog
6:53 AM 23.0 °F - 21.9 °F 96% 30.27 in 0.2 mi Calm Calm - N/A Fog Light Freezing Fog
7:53 AM 26.1 °F - 25.0 °F 96% 30.27 in 0.2 mi Calm Calm - N/A Fog Light Freezing Fog
8:53 AM 28.9 °F 25.2 °F 28.0 °F 96% 30.27 in 0.2 mi ESE 3.5 mph - N/A Fog Light Freezing Fog
9:53 AM 32.0 °F - 30.9 °F 96% 30.26 in 0.2 mi Calm Calm - N/A Fog Fog
10:19 AM 33.8 °F 30.8 °F 33.8 °F 100% 30.22 in 1.0 mi ESE 3.5 mph - N/A   Mist
10:22 AM 35.6 °F 32.8 °F 33.8 °F 93% 30.22 in 2.5 mi ESE 3.5 mph - N/A   Overcast
10:29 AM 35.6 °F - 35.6 °F 100% 30.21 in 6.0 mi Calm Calm - N/A   Mostly Cloudy
10:43 AM 37.4 °F 34.9 °F 35.6 °F 93% 30.21 in 10.0 mi SSE 3.5 mph - N/A   Scattered Clouds
10:53 AM 37.9 °F - 35.1 °F 89% 30.24 in 10.0 mi Calm Calm - N/A   Clear
11:53 AM 43.0 °F 41.3 °F 35.1 °F 74% 30.21 in 10.0 mi Variable 3.5 mph - N/A   Clear
12:53 PM 46.0 °F 43.9 °F 35.1 °F 66% 30.19 in 10.0 mi SE 4.6 mph - N/A   Clear
2:53 PM 39.0 °F 34.8 °F 33.1 °F 79% 30.19 in 10.0 mi SSE 5.8 mph - N/A   Clear
3:53 PM 36.0 °F - 33.1 °F 89% 30.18 in 9.0 mi Calm Calm - N/A   Clear
4:19 PM 33.8 °F - 32.0 °F 93% 30.15 in 8.0 mi Calm Calm - N/A   Scattered Clouds
4:53 PM 34.0 °F - 32.0 °F 92% 30.18 in 6.0 mi Calm Calm - N/A   Clear
5:53 PM 32.0 °F - 30.9 °F 96% 30.17 in 7.0 mi Calm Calm - N/A   Clear
6:53 PM 30.0 °F 26.5 °F 28.9 °F 96% 30.16 in 7.0 mi Variable 3.5 mph - N/A   Clear
7:53 PM 30.9 °F - 30.0 °F 96% 30.15 in 8.0 mi Calm Calm - N/A   Clear
9:16 PM 30.2 °F - 28.4 °F 93% 30.10 in 2.5 mi Calm Calm - N/A   Clear
9:26 PM 32.0 °F - 30.2 °F 93% 30.10 in 7.0 mi Calm Calm - N/A   Clear
9:53 PM 32.0 °F 28.7 °F 30.0 °F 92% 30.12 in 5.0 mi East 3.5 mph - N/A   Clear
10:53 PM 34.0 °F - 32.0 °F 92% 30.10 in 4.0 mi Calm Calm - N/A   Clear
11:53 PM 37.0 °F - 34.0 °F 89% 30.08 in 8.0 mi Calm Calm - N/A   Clear